Date String (YYYY-MM-DD hh:mm:ss) UTC,Instrument flags,Ambient pressure (hPa),Sample flow (lpm),Bypass flow (lpm),Sample temperature (°C),Ambient temperature (°C),ASC tube jacket temperature (°C),LED temperature (°C),Box temperature (°C),Sample RH (%),Span deviation,Mass concentration (μg/m³),Mass concentration (μg/m³),Mass concentration (μg/m³)
DateTimeUTC,F1_M11,P_M11,Q1_M11,Q2_M11,T1_M11,T2_M11,T3_M11,T4_M11,T5_M11,U1_M11,ZSPAN_M11,X0_M11,X2_M11,X1_M11
2022-05-09 16:00:00,,0811.9,5.00,0.00,27.1,26.5,00.0,36.1,29.0,22.9,0000.0,0016.36,0007.61,0005.64
2022-05-09 16:01:00,,0811.9,5.00,0.00,27.1,26.5,00.0,36.1,29.0,22.6,0000.8,0016.41,0007.68,0005.68
2022-05-09 16:02:00,,0811.9,5.01,0.00,27.1,26.5,00.0,36.1,29.0,23.1,0000.4,0016.54,0007.71,0005.74
2022-05-09 16:03:00,,0811.9,5.00,0.00,27.1,26.5,00.0,36.1,29.0,23.0,0000.0,0016.46,0007.70,0005.79
2022-05-09 16:04:00,,0811.9,5.00,0.00,27.1,26.5,00.0,36.1,29.0,22.7,0000.0,0016.12,0007.74,0005.84
2022-05-09 16:05:00,,0811.9,5.00,0.00,27.2,26.5,00.0,36.1,29.1,22.7,0001.1,0016.21,0007.86,0005.89
2022-05-09 16:06:00,,0811.9,4.99,0.00,27.2,26.6,00.0,36.1,29.1,22.4,0001.5,0015.61,0007.88,0005.93
2022-05-09 16:07:00,,0811.9,5.01,0.00,27.2,26.6,00.0,36.1,29.1,22.6,0001.7,0014.40,0007.89,0005.99
2022-05-09 16:08:00,,0811.9,5.01,0.00,27.2,26.6,00.0,36.1,29.1,22.8,0002.1,0013.92,0007.93,0006.03
2022-05-09 16:09:00,,0811.9,5.00,0.00,27.2,26.6,00.0,36.1,29.1,23.8,0001.4,0015.24,0007.97,0006.07
2022-05-09 16:10:00,,0812.0,4.99,0.00,27.2,26.7,00.0,36.1,29.1,23.4,0001.3,0015.81,0008.03,0006.13
2022-05-09 16:11:00,,0812.0,5.00,0.00,27.2,26.7,00.0,36.1,29.1,23.2,0000.1,0016.27,0008.17,0006.20
2022-05-09 16:12:00,,0812.0,4.99,0.00,27.2,26.6,00.0,36.1,29.1,22.9,-000.5,0016.24,0008.21,0006.25
2022-05-09 16:13:00,,0811.9,5.01,0.00,27.2,26.6,00.0,36.2,29.1,23.0,-000.2,0016.28,0008.28,0006.29
2022-05-09 16:14:00,,0811.9,5.00,0.00,27.2,26.6,00.0,36.2,29.1,22.7,-001.2,0016.19,0008.29,0006.31
2022-05-09 16:15:00,,0812.0,4.99,0.00,27.2,26.6,00.0,36.2,29.1,23.0,-001.4,0016.66,0008.33,0006.35
2022-05-09 16:16:00,,0812.1,5.01,0.00,27.3,26.6,00.0,36.2,29.1,22.6,-001.1,0016.60,0008.36,0006.42
2022-05-09 16:17:00,,0812.0,4.99,0.00,27.3,26.6,00.0,36.2,29.1,23.0,-000.9,0016.93,0008.41,0006.49
2022-05-09 16:18:00,,0812.1,5.00,0.00,27.3,26.7,00.0,36.2,29.1,22.8,-001.6,0017.01,0008.40,0006.56
2022-05-09 16:19:00,,0812.1,5.00,0.00,27.3,26.7,00.0,36.2,29.2,22.9,-001.5,0017.06,0008.43,0006.63
2022-05-09 16:20:00,,0812.2,5.00,0.00,27.3,26.7,00.0,36.2,29.2,23.3,-001.2,0016.10,0008.49,0006.68
2022-05-09 16:21:00,,0812.2,5.00,0.00,27.3,26.7,00.0,36.2,29.2,22.9,-001.3,0015.58,0008.56,0006.73
2022-05-09 16:22:00,,0812.2,5.01,0.00,27.3,26.7,00.0,36.2,29.2,23.0,-001.1,0015.25,0008.52,0006.77
2022-05-09 16:23:00,,0812.3,5.00,0.00,27.3,26.7,00.0,36.2,29.3,22.4,-001.0,0015.00,0008.47,0006.79
2022-05-09 16:24:00,,0812.3,4.99,0.00,27.3,26.7,00.0,36.2,29.3,22.9,-000.6,0014.89,0008.42,0006.81
2022-05-09 16:25:00,,0812.2,5.00,0.00,27.4,26.7,00.0,36.2,29.3,22.4,-000.5,0015.95,0008.48,0006.81
2022-05-09 16:26:00,,0812.3,5.00,0.00,27.4,26.8,00.0,36.2,29.3,22.6,-000.1,0015.80,0008.50,0006.79
2022-05-09 16:27:00,,0812.3,5.00,0.00,27.4,26.8,00.0,36.2,29.3,22.4,-000.2,0015.97,0008.46,0006.74
2022-05-09 16:28:00,,0812.3,5.00,0.00,27.4,26.8,00.0,36.3,29.3,23.0,-000.6,0016.48,0008.52,0006.70
2022-05-09 16:29:00,,0812.4,4.99,0.00,27.4,26.8,00.0,36.3,29.3,22.4,-000.0,0016.54,0008.56,0006.65
2022-05-09 16:30:00,,0812.3,5.00,0.00,27.4,26.8,00.0,36.3,29.3,22.5,-000.1,0017.14,0008.61,0006.60
2022-05-09 16:31:00,,0812.4,5.00,0.00,27.4,26.8,00.0,36.3,29.3,22.9,0000.1,0017.40,0008.62,0006.53
2022-05-09 16:32:00,,0812.4,5.01,0.00,27.4,26.8,00.0,36.3,29.3,21.8,0000.3,0017.37,0008.58,0006.45
2022-05-09 16:33:00,,0812.4,5.01,0.00,27.4,26.8,00.0,36.3,29.2,22.1,0000.6,0017.28,0008.54,0006.38
2022-05-09 16:34:00,,0812.4,5.01,0.00,27.4,26.8,00.0,36.3,29.3,22.4,-000.0,0017.63,0008.60,0006.33
2022-05-09 16:35:00,,0812.5,4.99,0.00,27.4,26.8,00.0,36.3,29.3,21.7,-000.4,0017.79,0008.64,0006.28
2022-05-09 16:36:00,,0812.5,4.99,0.00,27.4,26.8,00.0,36.3,29.3,21.7,-000.1,0017.37,0008.64,0006.25
2022-05-09 16:37:00,,0812.5,5.01,0.00,27.4,26.8,00.0,36.3,29.3,21.8,0000.1,0017.36,0008.63,0006.24
2022-05-09 16:38:00,,0812.5,5.00,0.00,27.5,26.8,00.0,36.3,29.4,22.1,-000.6,0017.13,0008.57,0006.25
2022-05-09 16:39:00,,0812.6,5.01,0.00,27.5,26.9,00.0,36.3,29.4,22.4,-000.7,0016.25,0008.50,0006.27
2022-05-09 16:40:00,,0812.6,5.00,0.00,27.5,26.9,00.0,36.4,29.4,23.1,-000.8,0016.37,0008.51,0006.28
2022-05-09 16:41:00,,0812.6,5.00,0.00,27.5,26.9,00.0,36.4,29.4,22.2,-000.7,0016.32,0008.47,0006.28
2022-05-09 16:42:00,,0812.6,5.00,0.00,27.5,26.9,00.0,36.4,29.4,23.1,-000.7,0016.64,0008.50,0006.32
2022-05-09 16:43:00,,0812.6,4.98,0.00,27.5,26.9,00.0,36.4,29.4,22.4,-000.9,0017.13,0008.48,0006.36
2022-05-09 16:44:00,,0812.6,5.01,0.00,27.5,26.9,00.0,36.4,29.4,22.4,-000.7,0017.22,0008.51,0006.40
2022-05-09 16:45:00,,0812.6,5.00,0.00,27.5,26.9,00.0,36.4,29.5,23.0,-000.6,0017.25,0008.51,0006.40
2022-05-09 16:46:00,,0812.6,5.01,0.00,27.5,27.0,00.0,36.4,29.5,22.6,-000.5,0017.32,0008.47,0006.41
2022-05-09 16:47:00,,0812.5,5.00,0.00,27.6,27.0,00.0,36.4,29.4,22.1,-000.4,0017.90,0008.54,0006.44
2022-05-09 16:48:00,,0812.5,5.00,0.00,27.5,27.0,00.0,36.4,29.4,21.9,0000.0,0017.62,0008.58,0006.46
2022-05-09 16:49:00,,0812.5,4.99,0.00,27.6,27.0,00.0,36.4,29.4,22.4,0000.0,0017.66,0008.61,0006.44
2022-05-09 16:50:00,,0812.6,5.00,0.00,27.6,27.0,00.0,36.5,29.5,22.3,0000.0,0017.77,0008.61,0006.41
2022-05-09 16:51:00,,0812.6,5.00,0.00,27.6,27.0,00.0,36.5,29.5,22.0,0000.0,0018.28,0008.55,0006.37
2022-05-09 16:52:00,,0812.5,5.00,0.00,27.6,27.0,00.0,36.5,29.5,22.1,0000.0,0017.77,0008.51,0006.35
2022-05-09 16:53:00,,0812.6,5.00,0.00,27.6,27.0,00.0,36.5,29.5,21.7,-000.3,0017.35,0008.46,0006.34
2022-05-09 16:54:00,,0812.6,5.01,0.00,27.6,27.0,00.0,36.5,29.5,21.9,-000.7,0016.95,0008.50,0006.31
2022-05-09 16:55:00,,0812.7,5.01,0.00,27.6,27.0,00.0,36.5,29.5,21.8,-001.1,0017.55,0008.47,0006.27
2022-05-09 16:56:00,,0812.7,5.00,0.00,27.6,27.0,00.0,36.5,29.6,22.1,-001.0,0019.00,0008.50,0006.26
2022-05-09 16:57:00,,0812.7,5.01,0.00,27.7,27.0,00.0,36.5,29.6,22.5,-000.8,0019.91,0008.55,0006.24
2022-05-09 16:58:00,,0812.6,5.00,0.00,27.7,27.1,00.0,36.5,29.6,22.2,-000.8,0020.14,0008.54,0006.19
2022-05-09 16:59:00,,0812.6,5.00,0.00,27.7,27.1,00.0,36.5,29.5,21.9,-000.4,0020.18,0008.48,0006.15
